Location: LDNL
(36.4545°S, 141.6685°E)
Time: 04:58:49
(UTC+11:00)

Vanguard 2 - Pass Details

Date: 12 August 2022
Orbit: 552 x 2934 km, 32.9° (Epoch: 06 October)

Event Time Altitude Azimuth Distance (km) Brightness Sun altitude
Rises 14:50:05 0° 332° (NNW) 6,647 13.5 29.9°
Reaches altitude 10° 14:55:18 10° 342° (NNW) 5,735 13.3 29.3°
Maximum altitude 15:09:32 31° 35° (NE) 4,092 11.6 27.4°
Drops below altitude 10° 15:21:42 10° 88° (E) 4,928 11.3 25.8°
Sets 15:25:40 0° 98° (E) 5,626 11.5 25.2°
